Regional Weather Roundup
Issued by NWS

Home | Current Version | Previous Version | Graphics & Text | Print | Product List | Glossary On
Versions: 1 2 3 4 5 6 7 8 9 10 11 12 13 14 15 16 17 18 19 20 21 22 23 24 25 26 27 28 29 30 31 32 33 34 35 36 37 38 39 40 41 42 43 44 45 46 47 48 49 50
968
ASUS43 KMKX 192110
RWRWI

WISCONSIN REGIONAL WEATHER ROUNDUP
NATIONAL WEATHER SERVICE MILWAUKEE/SULLIVAN WI
300 PM CST FRI JAN 19 2018

NOTE: "FAIR" INDICATES FEW OR NO CLOUDS BELOW 12,000 FEET WITH NO
SIGNIFICANT WEATHER AND/OR OBSTRUCTIONS TO VISIBILITY.

WIZ001-002-006>008-014>016-023>028-192200-
NORTHWEST WISCONSIN

CITY           SKY/WX    TMP DP  RH WIND       PRES   REMARKS
SUPERIOR ARPT  FAIR      40  28  62 SW7       29.42R
ASHLAND        FAIR      40  25  55 SW9       29.40  WCI  34
HAYWARD        FAIR      41  24  51 SW9       29.43F
SIREN          FAIR      41  26  55 SW9       29.46S
CUMBERLAND     FAIR      37  27  65 SW10      29.46S WCI  30
RICE LAKE      FAIR      39  26  61 S6        29.48F WCI  34
CHETEK         NOT AVBL
LADYSMITH      FAIR      38  26  61 SW6       29.49R WCI  34
EAU CLAIRE     FAIR      42  26  53 SW13G26   29.48S
MENOMONIE      FAIR      42  27  55 SW13      29.50R
NEW RICHMOND   FAIR      39  26  60 SW8       29.48S WCI  34
OSCEOLA        FAIR      40  29  63 SW9       29.51R WCI  34
$$

WIZ003>005-009-010-017-018-192200-
NORTH CENTRAL WISCONSIN

CITY           SKY/WX    TMP DP  RH WIND       PRES   REMARKS
MANITOWISH WTR FAIR      39  23  52 SW5       29.41F
ARBOR VITAE    FAIR      39  28  63 S9        29.41F WCI  33
WOODRUFF       FAIR      39  28  63 S9        29.41F WCI  33
RHINELANDER    FAIR      39  26  59 SW10      29.43F WCI  32
EAGLE RIVER    FAIR      37  24  58 SW3       29.42F
LAND O LAKES   FAIR      39  26  59 CALM      29.44S
PHILLIPS       FAIR      41  25  52 SW3       29.42F
TOMAHAWK       FAIR      38  25  58 CALM      29.44F
MEDFORD        FAIR      35  26  69 S9        29.45F WCI  28
MERRILL        FAIR      39  26  61 SW6       29.47F WCI  34
$$

WIZ029-030-035-036-043>047-192200-
CENTRAL WISCONSIN

CITY           SKY/WX    TMP DP  RH WIND       PRES   REMARKS
WAUSAU         FAIR      36  26  67 S7        29.46F WCI  30
MOSINEE        PTSUNNY   36  27  69 S10       29.49F WCI  28
MARSHFIELD     FAIR      39  26  59 S9        29.47F WCI  33
STEVENS POINT  FAIR      37  26  64 S9        29.51F WCI  30
WAUPACA        FAIR      41  27  56 S12       29.54F
WAUTOMA        FAIR      39  26  59 S7        29.55F WCI  34
WISC RAPIDS    FAIR      38  24  57 SW14      29.52F WCI  30
CAMP DOUGLAS   PTSUNNY   41  27  56 S8        29.52F
$$

WIZ011>013-019>022-031-037>040-048>050-192200-
NORTHEAST WISCONSIN

CITY           SKY/WX    TMP DP  RH WIND       PRES   REMARKS
ANTIGO         FAIR      36  26  68 S7        29.48F WCI  30
SHAWANO        FAIR      40  26  57 SW5       29.53F
OCONTO         FAIR      37  26  65 SW7       29.55F WCI  31
STURGEON BAY   FAIR      37  26  64 S14       29.56F WCI  28
GREEN BAY      FAIR      36  26  67 S14       29.57F WCI  27
MANITOWOC      FAIR      39  27  62 S10       29.58F WCI  32
APPLETON       PTSUNNY   36  25  64 SW14G20   29.54F WCI  27
CLINTONVILLE   FAIR      37  27  65 S6        29.53F WCI  33
OSHKOSH        FAIR      37  27  67 S16       29.56F WCI  28
$$

WIZ032>034-041-042-053>061-192200-
SOUTHWEST WISCONSIN

CITY           SKY/WX    TMP DP  RH WIND       PRES   REMARKS
LA CROSSE      FAIR      41  27  57 SE13      29.54F
SPARTA         FAIR      42  27  54 SW8       29.53F
VIROQUA        FAIR      40  29  64 S13       29.55F WCI  32
BOSCOBEL       FAIR      44  26  49 S14G23    29.62F
PRAIRIE DU CHI FAIR      44  25  47 S5        29.61F
PLATTEVILLE    FAIR      40  31  70 S14       29.66S WCI  32
$$

WIZ056-057-062-063-064-067-068-192200-
SOUTH CENTRAL WISCONSIN

CITY           SKY/WX    TMP DP  RH WIND       PRES   REMARKS
REEDSBURG      FAIR      38  27  62 S13       29.57F WCI  30
BARABOO/DELLS  FAIR      39  26  59 S12G18    29.57F WCI  32
LONE ROCK      FAIR      42  27  55 S9G21     29.62F
MINERAL POINT  FAIR      41  32  70 S13G21    29.64S
MADISON        PTSUNNY   38  26  62 S17G32    29.64F WCI  28
MIDDLETON      FAIR      41  27  57 SW14      29.63F
WATERTOWN      FAIR      37  27  67 S16G23    29.64F WCI  28
MONROE         FAIR      37  28  70 S20G25    29.66F WCI  27
JANESVILLE     MOSUNNY   39  27  60 S16       29.70F WCI  30
$$

WIZ051-052-058>065-066-070>072-192200-
SOUTHEAST WISCONSIN

CITY           SKY/WX    TMP DP  RH WIND       PRES   REMARKS
MILWAUKEE      PTSUNNY   41  27  57 SW10G29   29.68F
WAUKESHA       SUNNY     39  25  56 SW14G23   29.67F WCI  31
MILWAUKEE/TIMM SUNNY     41  21  45 SW13      29.67F
RACINE         FAIR      40  26  57 SW10G23   29.72S WCI  33
BURLINGTON     FAIR      39  26  61 SW17G24   29.70F WCI  29
KENOSHA        FAIR      40  25  55 SW16G28   29.71S WCI  31
FOND DU LAC    FAIR      38  25  59 S14G28    29.59F WCI  30
SHEBOYGAN      FAIR      39  27  62 S13       29.60F WCI  31
WEST BEND      FAIR      37  27  65 SW13G18   29.62F WCI  29
JUNEAU         FAIR      35  26  68 S17       29.64F WCI  25
$$

LSZ147-162-192200-
LAKE SUPERIOR

STATION/POSITION TIME  TEMP    WIND        PRES    WAVE
                       AIR SEA DIR/SP/G            HT/PER
                 (UTC) (F)     (DEG/KT/KT) (MB)    (FT/S)
DEVILS ISLAND    2100   35     240/ 13/ 14  995.7F
SAXON HARBOR     2040   45     230/  6/ 11  995.6S
$$

LMZ867-665-643>646-192200-
LAKE MICHIGAN

STATION/POSITION TIME  TEMP    WIND        PRES    WAVE
                       AIR SEA DIR/SP/G            HT/PER
                 (UTC) (F)     (DEG/KT/KT) (MB)    (FT/S)
NORTHPORT PIER   2100   34     160/  2/ 19 1000.0
KEWAUNEE LAKESHO 2042   34     180/ 13/ 17 1001.4F
SHEBOYGAN LAKESH 2100   36     180/ 18/ 20 1003.0F
PORT WASHINGTON  2040   43     230/  7/ 16 1005.1F
MILWAUKEE LAKESH 2050   40     220/ 19/ 23   N/A
KENOSHA   LAKESH 2100   42     230/ 13/ 20 1006.8
$$

TC  - TEMPERATURE IN CELSIUS
VSB - VISIBILITY IN STATUTE MILES
WCI - WIND CHILL INDEX
HX  - HEAT INDEX





USA.gov is the U.S. government's official web portal to all federal, state and local government web resources and services.